Weather History for Piney Island, NC

Change the Weather History Date:

Saturday, February 16, 2013

  Actual Average (KMRH) Record (KMRH)
Temperature  
Mean Temperature 44 °F -  
Max Temperature 50 °F 59 °F 75 °F (1989)
Min Temperature 37 °F 39 °F 18 °F (1991)
Degree Days  
Heating Degree Days 22    
Moisture  
Dew Point 41 °F    
Average Humidity 81    
Maximum Humidity 97    
Minimum Humidity 66    
Precipitation  
Precipitation 0.19 in - - ()
Sea Level Pressure  
Sea Level Pressure 29.81 in    
Wind  
Wind Speed 9 mph (North)    
Max Wind Speed 24 mph    
Max Gust Speed 34 mph    
Averages and records for this station are not official NWS values.
T = Trace of Precipitation, MM = Missing Value Source: NWS Daily Summary

Daily Weather History Graph

Daily Weather History Graph

Search for Another Location

Airport:

Trip Planner

Search our weather history database for the weather conditions in past years. The results will help you decide how hot, cold, wet, or windy it might be!

Date:

Astronomy

Feb. 16, 2013 Rise Set
Actual Time 6:50 AM EST 5:49 PM EST
Civil Twilight 6:24 AM EST 6:15 PM EST
Nautical Twilight 5:55 AM EST 6:45 PM EST
Astronomical Twilight 5:25 AM EST 7:14 PM EST
Moon 10:18 AM EST (2/16) No Moon Set
Length of Visible Light 11h 50m
Length of Day
10h 59m
Waxing Crescent, 39% of the Moon is Illuminated
Feb 16
Waxing Crescent
Feb 17
First Quarter
Feb 25
Full
Mar 4
Last Quarter
Mar 11
New

Hourly Weather History & Observations

Time (EST) Temp. Windchill Dew Point Humidity Pressure Visibility Wind Dir Wind Speed Gust Speed Precip Events Conditions
12:56 AM 46.0 °F 44.8 °F 41.0 °F 83% 29.96 in - WNW 3.5 mph - N/A   Clear
1:56 AM 45.0 °F 43.5 °F 44.1 °F 97% 29.94 in - West 3.5 mph - N/A   Clear
2:56 AM 42.1 °F 38.4 °F 39.9 °F 92% 29.92 in - WSW 5.8 mph - N/A   Clear
3:56 AM 44.1 °F 40.1 °F 41.0 °F 89% 29.91 in - WSW 6.9 mph - N/A   Clear
4:56 AM 44.1 °F 39.0 °F 39.9 °F 85% 29.91 in - WNW 9.2 mph - N/A   Clear
5:56 AM 44.1 °F 39.0 °F 39.0 °F 82% 29.89 in - NW 9.2 mph - N/A   Clear
6:56 AM 44.1 °F 40.1 °F 39.9 °F 85% 29.90 in - North 6.9 mph - N/A   Clear
7:56 AM 46.9 °F - 41.0 °F 80% 29.90 in - NE 12.7 mph - N/A   Clear
8:25 AM 46.4 °F 41.5 °F 42.8 °F 87% 29.89 in - NE 10.4 mph 19.6 mph N/A   Mostly Cloudy
8:48 AM 46.4 °F 41.1 °F 42.8 °F 87% 29.88 in - NE 11.5 mph - N/A   Overcast
8:56 AM 46.9 °F - 42.1 °F 83% 29.89 in - NE 11.5 mph 19.6 mph N/A   Overcast
9:56 AM 46.9 °F - 42.1 °F 83% 29.88 in - NE 11.5 mph - N/A   Overcast
10:12 AM 46.4 °F 40.7 °F 41.0 °F 81% 29.87 in - NNE 12.7 mph - N/A   Overcast
10:56 AM 46.9 °F - 41.0 °F 80% 29.87 in - NE 10.4 mph - N/A   Overcast
11:56 AM 48.9 °F - 41.0 °F 74% 29.85 in - NE 10.4 mph - N/A   Overcast
12:56 PM 48.9 °F - 41.0 °F 74% 29.81 in - North 5.8 mph - N/A   Overcast
1:20 PM 50.0 °F - 41.0 °F 71% 29.78 in - NE 8.1 mph - N/A   Scattered Clouds
1:56 PM 50.0 °F - 41.0 °F 71% 29.77 in - North 9.2 mph - N/A   Scattered Clouds
2:54 PM 50.0 °F - 39.2 °F 66% 29.72 in - North 8.1 mph - N/A   Overcast
2:56 PM 50.0 °F - 41.0 °F 71% 29.73 in - North 8.1 mph - N/A   Overcast
3:37 PM 50.0 °F - 41.0 °F 71% 29.70 in - NNE 6.9 mph - N/A   Overcast
3:48 PM 50.0 °F - 41.0 °F 71% 29.69 in - NNE 8.1 mph - N/A   Overcast
3:56 PM 50.0 °F - 41.0 °F 71% 29.70 in - NNE 5.8 mph - N/A   Overcast
4:56 PM 48.0 °F - 41.0 °F 77% 29.70 in - NNW 16.1 mph 25.3 mph 0.00 in Rain Light Rain
5:12 PM 44.6 °F 36.9 °F 41.0 °F 87% 29.69 in - NW 18.4 mph 26.5 mph 0.02 in Rain Rain
5:22 PM 42.8 °F 34.3 °F 39.2 °F 87% 29.69 in - NW 19.6 mph 25.3 mph 0.03 in Rain Light Rain
5:56 PM 39.9 °F 29.5 °F 37.9 °F 93% 29.74 in - NW 24.2 mph 34.5 mph 0.07 in Rain Rain
6:56 PM 39.0 °F 29.0 °F - N/A% 29.76 in - NW 20.7 mph 31.1 mph 0.07 in Rain Light Rain
7:56 PM 37.9 °F 27.3 °F - N/A% 29.77 in - NNW 21.9 mph 28.8 mph 0.02 in Snow Light Snow
8:20 PM 37.4 °F 27.5 °F - N/A% 29.76 in - NNW 18.4 mph 25.3 mph 0.01 in Rain Light Rain
8:56 PM 37.9 °F 29.2 °F - N/A% 29.77 in - North 15.0 mph 24.2 mph 0.02 in Rain Light Rain
9:56 PM 37.9 °F 28.5 °F - N/A% 29.79 in - NW 17.3 mph 26.5 mph 0.01 in Rain Light Rain
10:56 PM 37.0 °F 26.7 °F - N/A% 29.81 in - NW 19.6 mph 26.5 mph 0.00 in   Overcast
11:56 PM 37.0 °F 27.0 °F - N/A% 29.82 in - NW 18.4 mph 24.2 mph N/A   Overcast